Location: Doussal
(55.6167°N, 116.8333°W)
Time: 03:56:07
(UTC+00:00)

METEOR M2 - Pass Details

Date: 17 December 2023
Orbit: 818 x 826 km, 98.4° (Epoch: 25 February)

Event Time Altitude Azimuth Distance (km) Brightness Sun altitude
Rises 14:21:17 0° 14° (NNE) 3,372 ? -14.0°
Reaches altitude 10° 14:23:39 10° 12° (NNE) 2,434 ? -13.7°
Maximum altitude 14:29:00 68° 291° (WNW) 886 ? -13.0°
Drops below altitude 10° 14:34:18 10° 210° (SSW) 2,414 ? -12.3°
Sets 14:36:39 0° 208° (SSW) 3,341 ? -12.0°
